Tracking 30402 objects as of 12-May-2025
HD Live streaming from Space Station
objects crossing your sky now

SECOR 5 (EGRS 5)

Track SECOR 5 (EGRS 5) now!
10-day predictions
SECOR 5 (EGRS 5) is classified as:


NORAD ID: 1506
Int'l Code: 1965-063A
Perigee: 1,146.0 km
Apogee: 2,423.8 km
Inclination: 69.2 °
Period: 122.2 minutes
Semi major axis: 8155 km
RCS: 0.4268 m2 (medium)
Launch date: August 10, 1965
Source: United States (US)
Launch site: WALLOPS ISLAND (WLPIS)
Your satellite tracking list
Your tracking list is empty




NASA's NSSDC Master Catalog

Two Line Element Set (TLE):
1 01506U 65063A   25131.76860909 -.00000015  00000-0  10331-3 0  9997
2 01506  69.2296 135.1644 0783307 122.0955  44.5741 11.78677568570940
Source of the keplerian elements: AFSPC